Date,TemperatureHighF,TemperatureAvgF,TemperatureLowF,DewpointHighF,DewpointAvgF,DewpointLowF,HumidityHigh,HumidityAvg,HumidityLow,PressureMaxIn,PressureMinIn,WindSpeedMaxMPH,WindSpeedAvgMPH,GustSpeedMaxMPH,PrecipitationSumIn
2014-1-1,39.0,28.0,20.3,26.2,20.3,14.9,81,73,60,30.15,29.93,4,2,10,0.00
2014-1-2,24.6,18.5,7.5,18.8,11.4,-3.7,82,74,55,30.22,29.81,6,3,17,0.01
2014-1-3,28.0,13.5,-4.2,7.6,-0.1,-11.0,73,56,38,30.38,30.04,8,4,19,0.00
2014-1-4,46.4,28.6,15.4,20.9,12.7,4.0,60,52,38,30.04,29.86,10,5,21,0.00
2014-1-5,36.7,31.8,9.3,31.0,25.0,2.5,89,77,52,29.90,29.50,10,1,19,0.00
2014-1-6,9.3,-6.5,-12.1,2.5,-17.7,-22.5,73,57,46,30.23,29.77,7,4,19,0.00
2014-1-7,14.9,1.3,-11.4,-1.0,-10.8,-21.6,61,56,44,30.30,30.21,6,3,16,0.00
2014-1-8,29.5,17.9,7.3,14.9,7.2,-2.8,71,63,53,30.36,30.20,4,2,9,0.00
2014-1-9,32.4,22.7,13.1,28.9,16.2,7.3,88,76,62,30.38,30.13,5,2,11,0.00
2014-1-10,43.3,38.1,32.9,38.7,34.3,29.5,92,86,73,30.11,29.57,6,3,14,0.14
2014-1-11,44.8,39.5,34.7,36.0,28.1,19.3,73,64,52,29.67,29.36,7,3,20,0.01
2014-1-12,46.0,37.9,30.6,33.8,28.5,24.2,78,69,59,29.92,29.69,9,5,20,0.00
2014-1-13,50.9,44.6,34.9,41.2,34.3,29.0,80,68,59,29.69,29.52,7,4,18,0.00
2014-1-14,47.1,33.4,22.5,31.3,24.5,16.5,88,71,49,29.82,29.60,9,3,19,0.01
2014-1-15,28.9,22.8,18.3,17.6,13.0,8.9,74,66,59,29.98,29.17,6,3,18,0.00
2014-1-16,26.8,20.4,17.2,22.1,13.7,8.7,85,75,66,29.91,29.10,8,5,20,0.00
2014-1-17,30.9,15.9,10.8,26.4,6.2,1.7,83,65,49,29.93,29.62,6,3,16,0.00
2014-1-18,25.3,19.7,13.6,21.4,13.5,6.7,86,76,61,29.91,29.65,7,3,16,0.00
2014-1-19,39.0,27.9,16.3,23.7,18.9,11.3,85,70,54,29.83,29.56,7,4,22,0.01
2014-1-20,46.4,36.8,30.9,31.6,26.2,23.1,80,66,52,29.80,29.53,6,2,16,0.00
2014-1-21,31.1,21.2,3.6,26.0,13.6,-5.3,82,73,37,30.10,29.73,6,3,19,0.04
2014-1-22,16.5,8.5,-1.1,9.8,0.1,-7.7,76,68,53,30.09,29.85,6,3,21,0.00
2014-1-23,13.1,4.1,-2.9,-2.0,-7.7,-13.8,67,57,46,30.48,29.99,6,4,22,0.00
2014-1-24,23.0,8.0,-5.1,13.0,-4.5,-12.5,75,57,39,30.48,29.64,10,4,26,0.01
2014-1-25,36.9,22.0,7.2,24.7,9.9,-5.2,81,61,38,29.80,29.39,10,6,30,0.01
2014-1-26,44.8,26.2,6.3,27.2,12.4,-6.4,76,56,42,29.79,29.40,11,4,30,0.00
2014-1-27,20.8,6.8,-5.1,7.9,-8.4,-17.6,57,49,37,30.32,29.62,14,6,32,0.00
2014-1-28,20.8,3.2,-8.9,-5.4,-12.8,-19.7,60,48,29,30.35,30.20,4,1,11,0.00
2014-1-29,33.8,16.0,2.3,5.6,-2.9,-9.3,58,45,30,30.19,30.07,6,3,15,0.00
2014-1-30,34.3,25.0,14.2,10.2,2.9,-2.7,48,39,32,30.08,29.70,10,6,23,0.00
2014-1-31,37.0,32.6,30.4,24.1,16.9,7.0,76,54,34,30.01,29.83,4,1,12,0.00
2014-2-1,41.5,36.1,30.7,38.8,32.3,24.4,91,86,73,29.95,29.69,5,2,14,0.69
2014-2-2,33.3,27.3,20.1,29.4,21.1,12.9,88,77,65,30.14,29.88,1,0,9,0.00
2014-2-3,39.0,21.4,11.3,18.7,11.5,6.4,80,67,43,30.27,30.10,0,0,0,0.00
2014-2-4,27.7,20.2,12.9,17.1,12.8,7.7,84,73,58,30.27,29.91,6,1,14,0.00
2014-2-5,29.8,23.2,18.5,19.0,16.2,12.0,84,75,62,30.29,29.69,6,3,15,0.01
2014-2-6,22.1,11.8,-1.7,13.3,1.2,-10.6,76,63,43,30.35,30.27,5,2,14,0.00
2014-2-7,27.0,7.6,-4.5,0.8,-6.3,-12.4,69,54,33,30.35,30.25,4,1,11,0.00
2014-2-8,27.7,16.8,5.5,14.5,5.9,-4.5,68,62,53,30.25,30.01,5,1,11,0.00
2014-2-9,23.9,22.6,20.8,18.6,16.4,14.4,81,77,68,30.02,29.96,3,1,9,0.00
2014-2-21,38.7,37.1,36.0,30.0,28.1,27.0,71,70,69,29.55,29.50,5,3,14,0.00
2014-2-22,57.4,43.9,30.2,33.9,28.6,23.9,77,57,43,29.94,29.83,4,2,11,0.00
2014-2-23,37.4,30.5,23.4,30.6,20.2,11.2,86,67,45,30.11,29.92,4,2,13,0.01
2014-2-24,37.2,25.8,18.9,15.0,11.4,8.7,69,55,38,30.17,30.09,6,3,20,0.00
2014-2-25,26.8,23.6,16.7,14.9,11.9,3.3,66,61,55,30.11,30.01,6,3,17,0.00
2014-2-26,27.5,15.5,5.7,3.8,0.3,-3.7,64,52,37,30.13,29.71,6,4,20,0.00
2014-2-27,25.0,17.2,8.2,8.2,0.4,-4.0,62,48,35,30.06,29.62,9,4,25,0.00
2014-2-28,41.4,22.8,6.3,12.2,5.4,-2.3,69,50,30,30.12,29.94,7,3,17,0.00
2014-3-1,55.2,32.1,25.3,27.9,17.2,10.4,74,56,37,30.11,29.94,4,1,11,0.00
2014-3-2,27.3,21.1,14.0,17.7,12.0,2.3,80,68,56,30.19,30.07,5,3,14,0.00
2014-3-3,25.3,13.1,5.5,1.7,-2.3,-5.0,66,51,32,30.33,30.17,6,3,14,0.00
2014-3-4,42.6,20.4,6.6,13.9,3.7,-4.4,64,51,29,30.27,30.06,5,1,10,0.01
2014-3-5,34.9,24.0,16.2,16.7,11.3,6.5,75,59,41,30.26,30.08,7,3,16,0.00
2014-3-6,48.6,29.4,18.0,24.0,15.2,7.7,76,57,36,30.26,30.01,4,2,11,0.00
2014-3-7,63.5,40.3,20.3,33.2,24.7,15.5,83,59,31,29.99,29.81,5,1,15,0.00
2014-3-8,47.8,36.3,27.1,34.8,28.2,17.9,83,73,60,30.12,29.84,5,2,17,0.00
2014-3-9,51.4,35.1,19.8,27.5,21.2,14.7,82,60,39,30.17,29.87,4,2,12,0.00
2014-3-10,63.0,48.8,37.8,40.5,34.3,27.5,69,59,44,29.86,29.60,6,3,18,0.00
2014-3-11,75.0,56.1,41.7,48.5,42.2,36.5,86,63,37,29.62,29.47,4,1,11,0.00
2014-3-12,48.0,33.4,19.4,36.2,25.7,9.5,88,74,51,29.96,29.24,12,4,24,0.09
2014-3-13,41.0,32.0,14.7,19.3,14.8,8.9,77,51,39,30.10,29.91,6,3,17,0.00
2014-3-14,64.2,49.2,35.1,36.3,28.8,18.8,59,48,35,29.91,29.60,12,6,32,0.05
2014-3-24,29.1,28.9,28.6,14.7,14.0,13.0,55,54,52,29.94,29.93,0,0,0,0.00
2014-3-25,37.6,29.6,25.2,23.5,15.8,6.3,77,58,39,30.04,29.81,8,3,22,0.00
2014-3-26,49.1,31.9,15.6,14.2,10.2,5.6,69,44,26,30.19,29.98,6,2,15,0.00
2014-3-27,53.8,40.1,34.3,38.5,22.4,12.2,71,51,40,29.99,29.53,11,6,24,0.04
2014-3-28,53.2,47.2,39.0,43.7,37.4,30.3,77,70,55,29.96,29.53,11,5,24,0.00
2014-3-29,40.3,37.3,33.6,34.1,31.4,28.7,87,79,70,30.01,29.85,5,2,17,0.30
2014-3-30,65.3,42.6,27.3,35.1,28.7,23.7,87,63,34,30.09,29.95,4,1,11,0.01
2014-3-31,72.0,52.7,33.1,36.4,32.0,26.0,79,51,29,29.98,29.70,12,4,25,0.01
2014-4-1,68.9,58.5,50.9,42.6,36.2,32.0,57,46,32,29.91,29.64,9,4,24,0.01
2014-4-2,55.2,49.6,42.4,47.7,41.0,30.8,84,74,50,29.96,29.82,5,2,13,0.04
2014-4-3,66.2,53.2,47.1,58.1,49.4,44.3,95,87,70,29.85,29.45,6,2,14,1.95
2014-4-4,59.5,47.4,38.1,53.3,40.7,26.4,94,78,61,29.83,29.30,10,4,27,0.05
2014-4-5,60.6,44.4,34.0,34.6,28.4,23.7,67,55,38,30.03,29.83,6,3,17,0.00
2014-4-6,63.9,46.7,28.9,35.2,31.2,25.3,90,60,35,30.01,29.76,12,2,12,0.00
2014-4-7,50.0,44.6,42.1,42.1,36.7,31.0,89,75,60,29.77,29.26,7,3,23,0.73
2014-4-8,62.8,49.1,35.8,46.8,39.5,32.0,89,71,52,29.70,29.44,5,2,16,0.00
2014-4-9,70.2,52.2,34.7,40.3,34.9,28.5,84,56,35,29.88,29.70,5,2,15,0.00
2014-4-10,51.8,49.9,48.4,35.1,34.3,33.8,58,56,52,29.82,29.75,6,2,15,0.00
2014-4-11,76.5,64.7,48.9,51.2,40.5,34.0,87,46,28,29.90,29.78,4,2,13,0.00
2014-4-12,83.7,63.4,40.3,55.5,45.3,33.6,78,56,35,29.93,29.63,10,4,27,0.00
2014-4-13,79.9,71.6,65.5,56.4,53.8,50.6,65,55,45,29.68,29.46,9,5,23,0.01
2014-4-14,72.7,52.0,32.0,56.2,44.2,28.4,88,76,50,29.72,29.35,12,5,28,0.31
2014-4-15,41.9,34.1,28.0,28.6,21.0,15.7,87,60,40,30.08,29.71,8,2,24,0.06
2014-4-16,55.4,40.5,27.9,26.1,21.3,15.4,68,49,33,30.22,30.04,9,3,21,0.00
2014-4-17,72.3,53.9,34.3,37.1,30.9,23.0,66,45,29,30.11,30.05,7,2,21,0.00
2014-4-18,76.5,58.8,42.6,44.5,39.3,34.1,77,53,34,30.11,30.03,4,1,14,0.00
2014-4-19,72.0,55.1,37.4,45.1,37.6,30.3,78,56,35,30.18,30.07,6,2,14,0.00
2014-4-20,81.3,48.3,39.6,43.5,33.4,29.4,70,58,26,30.10,29.91,5,0,9,0.00
2014-4-21,78.6,63.0,45.1,54.7,46.5,38.6,80,59,37,29.92,29.68,6,2,17,0.00
2014-4-22,63.3,56.8,45.1,55.8,41.5,30.8,89,60,38,29.83,29.61,8,3,27,1.57
2014-4-23,66.4,47.8,20.8,36.1,28.2,10.2,70,50,30,29.96,29.83,97,16,97,0.09
2014-4-24,70.0,58.6,49.8,36.1,33.1,28.4,60,41,30,29.92,29.54,8,4,19,0.00
2014-4-25,73.0,58.4,50.7,52.8,43.3,30.5,91,62,33,29.70,29.44,8,3,26,0.21
2014-4-26,62.8,51.1,8.4,42.2,41.0,10.1,76,69,45,29.79,29.67,3,0,10,0.00
2014-4-27,78.1,60.5,45.0,48.0,40.7,33.3,67,51,37,29.88,29.65,8,4,20,0.00
2014-4-28,74.8,59.8,49.5,59.8,49.1,-11.5,88,69,53,29.70,29.35,11,4,55,0.20
2014-4-29,78.3,62.5,52.2,59.1,49.8,42.1,93,68,33,29.58,29.34,13,4,27,0.32
2014-4-30,68.4,55.6,45.7,52.1,45.5,-1.5,89,71,49,29.72,29.57,10,3,101,0.00
2014-5-1,58.1,49.8,44.2,39.0,36.8,35.4,73,62,49,29.73,29.66,7,3,21,0.06
2014-5-2,57.7,50.8,47.1,41.8,39.8,37.7,75,67,56,29.74,29.68,4,2,14,0.00
2014-5-3,74.7,62.6,48.6,43.9,38.0,33.1,75,45,27,29.74,29.61,7,3,24,0.00
2014-5-4,71.4,60.2,50.4,42.5,35.9,25.9,61,43,32,29.90,29.72,5,2,16,0.00
2014-5-5,74.5,58.3,46.2,48.3,39.4,-1.3,67,52,41,29.87,29.66,14,3,16,0.00
2014-5-6,79.5,64.0,48.9,49.2,42.2,37.8,66,48,35,29.81,29.69,8,3,16,0.00
2014-5-7,90.1,65.8,0.0,62.7,44.7,0.0,48,36,37,29.75,29.01,7,4,19,0.00
2014-5-8,91.2,76.9,0.0,64.0,55.0,0.0,61,43,40,29.83,29.06,10,5,21,0.07
2014-5-9,81.0,73.2,67.6,63.5,57.7,52.9,76,60,50,29.78,29.61,9,4,21,0.06
2014-5-10,85.6,69.2,56.8,55.1,48.7,39.8,84,54,28,29.83,29.68,24,2,23,0.00
2014-5-11,89.6,70.6,55.9,66.4,57.5,42.6,87,66,45,29.90,29.75,9,2,59,0.05
2014-5-12,87.8,74.0,62.4,77.2,64.5,58.2,97,74,54,29.89,29.77,9,3,24,0.78
2014-5-13,86.5,72.0,56.7,68.9,63.1,52.2,91,75,54,29.96,29.78,10,3,17,0.45
2014-5-14,61.5,55.6,50.4,53.9,50.5,47.5,93,83,75,29.97,29.65,5,2,17,0.80
2014-5-15,57.7,50.1,41.9,49.7,41.7,36.2,92,74,54,29.91,29.59,5,2,17,0.02
2014-5-16,55.8,46.6,41.0,45.6,40.4,37.2,89,80,65,29.90,29.79,5,1,12,0.35
2014-5-17,64.8,50.6,41.4,40.4,37.3,32.9,90,65,38,30.08,29.88,5,1,13,0.01
2014-5-18,72.5,54.9,36.3,42.9,37.4,32.8,91,59,31,30.14,30.05,4,1,11,0.00
2014-5-19,76.3,60.4,41.4,47.3,42.4,38.0,90,57,36,30.12,29.88,6,2,15,0.00
2014-5-20,86.4,72.5,62.1,64.4,55.8,45.0,71,57,49,29.94,29.75,6,3,15,0.00
2014-5-21,89.6,74.0,67.5,68.7,62.9,57.6,93,70,52,29.78,29.69,5,2,14,0.25
2014-5-22,81.9,70.5,60.4,65.5,55.7,47.5,96,65,35,29.93,29.72,4,1,14,0.01
2014-5-23,81.1,66.2,50.5,51.6,48.4,44.5,86,57,36,30.01,29.91,4,1,13,0.00
2014-5-24,84.6,61.3,48.9,53.1,47.9,43.6,86,65,34,30.06,29.95,3,1,8,0.00
2014-5-25,88.2,72.3,55.6,56.9,53.4,50.9,87,58,33,30.01,29.90,4,1,14,0.00
2014-5-26,92.1,75.3,58.3,66.6,59.6,52.3,84,61,43,29.95,29.80,4,1,14,0.00
2014-5-27,92.7,80.2,69.4,67.9,63.4,60.5,81,60,40,29.86,29.75,4,1,13,0.00
2014-5-28,92.5,77.9,67.5,67.4,62.3,57.9,77,61,40,29.85,29.76,5,2,15,0.00
2014-5-29,90.1,76.6,65.3,67.4,64.0,60.1,90,68,46,29.92,29.83,4,2,12,0.00
2014-5-30,89.8,76.8,63.9,60.1,53.0,48.7,65,48,31,30.00,29.91,6,3,13,0.00
2014-5-31,93.0,77.7,60.1,57.4,53.7,51.3,76,48,30,30.05,29.91,5,2,17,0.00
2014-6-1,93.9,76.9,58.5,64.9,58.2,51.2,79,56,36,29.97,29.82,6,2,15,0.00
2014-6-2,84.2,74.1,69.1,68.9,66.0,64.3,95,77,61,29.89,29.77,9,4,20,0.56
2014-6-3,90.7,79.4,68.5,70.1,63.8,52.4,92,64,36,29.82,29.74,4,2,16,0.00
2014-6-4,82.6,67.9,61.7,69.7,60.2,54.3,94,77,62,29.76,29.55,6,2,23,0.70
2014-6-5,82.6,68.3,55.2,59.7,54.0,48.4,93,65,38,29.81,29.69,4,1,11,0.00
2014-6-6,89.2,71.2,53.4,60.4,52.5,49.0,93,58,31,29.86,29.77,4,1,10,0.00
2014-6-7,87.8,73.5,56.7,61.5,54.6,52.6,91,57,36,29.89,29.62,5,2,17,0.00
2014-6-8,81.1,70.1,61.3,66.2,59.0,53.8,94,70,49,29.83,29.50,6,2,20,0.18
2014-6-9,83.8,70.7,59.5,60.6,56.7,53.9,86,65,41,29.83,29.73,4,2,11,0.00
2014-6-10,75.9,68.8,63.7,66.7,61.3,57.3,94,78,63,29.75,29.58,5,2,15,0.15
2014-6-11,84.6,71.5,65.3,67.4,64.4,61.7,96,80,57,29.61,29.54,5,2,13,0.08
2014-6-12,88.2,75.4,62.6,65.6,62.5,59.6,90,67,48,29.70,29.59,4,2,13,0.01
2014-6-13,80.4,70.0,58.5,63.0,52.2,42.9,80,57,31,29.90,29.68,5,2,14,0.01
2014-6-14,83.5,67.4,47.7,53.7,46.9,42.1,90,53,32,29.98,29.87,5,1,12,0.00
2014-6-15,89.8,74.0,53.2,64.5,56.9,46.4,81,58,43,29.92,29.76,7,3,21,0.00
2014-6-16,93.6,81.2,72.5,71.9,67.6,63.3,80,66,50,29.96,29.85,5,2,11,0.00
2014-6-17,95.5,84.1,74.3,72.2,68.4,63.8,77,61,47,29.90,29.77,8,3,22,0.00
2014-6-18,95.2,82.1,67.3,74.9,69.4,60.6,88,68,50,29.90,29.78,8,2,20,0.59
2014-6-19,95.0,76.1,66.4,76.1,68.6,62.9,94,80,54,29.95,29.83,6,2,17,0.18
2014-6-20,90.7,78.1,69.4,72.3,68.9,66.3,94,76,52,29.90,29.75,3,1,10,0.07
2014-6-21,74.7,69.7,67.3,70.8,67.0,64.1,96,91,78,29.85,29.74,2,0,9,0.01
2014-6-22,94.6,87.4,71.8,69.1,66.5,64.0,78,53,42,29.77,29.67,4,2,11,0.01
2014-6-23,93.9,78.2,69.3,71.6,68.0,64.3,91,73,49,29.76,29.68,8,2,24,0.22
2014-6-24,85.5,74.2,70.5,71.1,67.7,64.8,93,81,62,29.77,29.70,3,1,8,0.38
2014-6-25,91.2,77.3,66.4,72.1,67.5,62.7,97,75,50,29.85,29.73,4,1,11,0.08
2014-6-26,91.8,77.1,65.7,68.6,65.1,63.0,95,70,44,29.91,29.82,4,1,9,0.00
2014-6-27,93.7,79.2,65.8,69.4,65.6,62.5,91,67,44,29.91,29.85,4,1,11,0.18
2014-6-28,73.2,71.9,71.2,68.5,67.1,66.1,90,85,81,29.91,29.88,1,0,3,0.00
2014-6-30,90.0,81.6,71.2,73.1,70.7,65.7,88,71,57,29.79,29.63,7,3,16,0.01
2014-7-1,81.7,72.3,66.2,72.2,66.8,63.0,93,84,64,29.76,29.55,7,3,18,0.00
2014-7-2,79.0,70.6,65.8,59.9,56.7,55.0,70,63,52,29.85,29.79,4,2,14,0.01
2014-7-3,79.5,68.2,61.2,57.6,54.5,50.5,81,65,43,30.02,29.83,5,2,14,0.00
2014-7-4,85.5,69.4,52.0,59.0,51.5,47.8,91,58,36,30.15,30.01,4,1,12,0.00
2014-7-5,87.8,72.3,53.6,60.3,53.7,50.4,92,58,34,30.15,29.96,5,2,13,0.00
2014-7-6,87.1,80.9,65.1,68.7,64.9,59.0,87,60,56,29.90,29.72,6,4,15,0.14
2014-7-7,86.9,76.1,71.6,73.9,66.1,60.2,84,72,61,29.74,29.62,5,2,15,0.14
2014-7-8,86.4,73.5,-20.6,70.5,66.6,-31.1,93,81,53,29.67,28.96,5,2,17,0.64
2014-7-9,87.6,79.9,63.7,64.3,59.3,54.2,81,52,38,29.87,29.73,6,2,14,0.00
2014-7-10,86.2,74.8,61.0,59.6,55.8,52.9,84,55,39,30.01,29.86,4,2,11,0.00
2014-7-11,93.7,76.5,56.3,61.3,57.5,52.8,90,57,39,30.07,29.30,4,2,11,0.00
2014-7-12,87.3,87.3,87.3,59.8,59.8,59.8,42,42,42,29.98,29.31,3,3,8,0.00
2014-7-13,92.5,86.0,73.2,72.2,62.5,59.8,82,49,42,29.98,29.31,4,3,10,0.00
2014-7-14,94.5,76.5,66.4,68.0,65.4,61.8,90,72,43,29.76,29.65,7,1,22,0.44
2014-7-15,77.5,65.9,57.0,63.7,53.2,49.4,90,66,46,29.81,29.67,4,2,14,0.00
2014-7-16,78.3,65.2,54.7,56.9,52.4,49.4,88,66,43,29.88,29.80,4,1,13,0.00
2014-7-17,83.7,67.5,50.5,58.1,50.7,-32.3,91,60,35,29.99,29.88,4,1,11,0.00
2014-7-18,83.5,67.5,54.3,59.0,54.2,50.7,89,66,43,30.03,29.94,4,1,14,0.00
2014-7-19,83.3,68.6,58.5,62.9,58.1,53.0,86,71,51,29.96,29.85,4,1,8,0.00
2014-7-20,87.6,73.0,58.1,64.9,59.9,55.5,94,68,42,29.93,29.85,4,1,10,0.00
2014-7-21,92.8,76.6,60.4,67.4,62.6,57.5,93,66,42,29.98,29.88,4,1,10,0.00
2014-7-22,95.9,80.9,64.0,69.5,65.6,-46.0,91,64,41,29.96,29.84,4,1,14,0.00
2014-7-23,79.3,73.3,64.6,71.0,66.2,56.9,92,79,60,29.92,29.17,4,1,12,0.26
2014-7-24,82.8,70.1,56.7,59.2,55.5,51.6,92,63,41,29.95,29.88,4,2,12,0.00
2014-7-25,84.7,67.8,54.1,59.1,55.1,51.3,92,68,41,29.97,29.80,4,1,11,0.00
2014-7-26,88.7,76.5,69.8,72.3,65.3,57.6,93,70,59,29.84,29.65,6,2,22,0.00
2014-7-27,90.7,71.2,68.7,72.0,66.0,56.8,100,86,54,29.72,29.54,4,1,14,0.21
2014-7-28,77.4,67.1,56.3,59.8,54.6,45.8,78,66,48,29.90,29.66,6,3,17,0.00
2014-7-29,84.6,65.4,52.7,61.0,53.3,45.5,89,68,44,29.92,29.86,3,1,11,0.51
2014-7-30,86.4,71.4,59.0,64.9,60.2,57.2,95,72,45,29.91,29.84,4,1,11,0.01
2014-7-31,89.6,73.9,60.6,64.4,60.7,58.4,95,68,42,29.93,29.87,4,1,11,0.00
2014-8-1,89.4,73.3,60.3,65.7,60.7,57.4,93,69,43,29.96,29.89,4,1,12,0.00
2014-8-2,88.9,75.1,63.7,65.5,60.6,56.5,80,64,43,29.98,29.90,4,1,13,0.00
2014-8-3,92.5,75.8,61.3,65.7,60.7,57.6,94,65,39,30.01,29.92,3,1,12,0.00
2014-8-4,92.7,75.2,62.2,67.7,63.2,58.9,91,70,42,29.99,29.88,5,1,15,0.19
2014-8-5,88.0,74.2,64.8,68.7,63.3,59.9,95,72,48,29.93,29.84,2,0,7,0.00
2014-8-6,86.4,72.8,63.1,67.6,63.8,60.2,94,75,54,29.90,29.82,3,1,8,0.00
2014-8-7,85.8,72.2,61.0,61.6,58.5,56.3,89,65,44,29.95,29.86,5,2,13,0.00
2014-8-8,85.1,74.1,66.0,61.7,57.9,55.5,71,59,45,29.91,29.85,6,2,17,0.00
2014-8-9,87.6,74.8,64.6,67.3,61.2,56.6,78,65,50,29.90,29.80,6,2,14,0.00
2014-8-10,91.4,76.9,65.8,70.3,64.9,-12.1,91,68,50,29.87,29.75,5,2,14,0.00
2014-8-11,86.7,75.8,69.6,72.0,69.7,66.0,96,83,61,29.78,29.64,4,1,11,0.08
2014-8-12,71.6,66.3,60.8,67.3,60.4,55.0,92,82,67,29.82,29.61,5,2,15,0.01
2014-8-13,86.5,70.8,55.6,63.1,57.2,52.5,95,67,40,29.90,29.81,4,1,12,0.01
2014-8-14,85.5,72.5,59.4,63.4,57.8,46.2,88,63,41,29.91,29.83,4,1,14,0.00
2014-8-15,85.8,65.0,46.8,51.8,47.7,43.3,91,59,30,29.95,29.83,3,1,9,0.00
2014-8-16,77.4,67.8,55.4,67.9,61.0,49.6,90,79,67,29.85,29.79,4,1,11,0.15
2014-8-17,86.9,74.3,65.5,69.3,65.1,60.6,90,75,57,29.82,29.73,5,1,12,0.00
2014-8-18,92.8,78.9,71.1,71.4,66.7,63.9,83,68,48,29.75,29.65,3,1,8,0.00
2014-8-19,92.3,78.5,67.1,71.1,67.9,65.2,95,74,50,29.69,29.61,5,1,18,0.00
2014-8-20,90.7,82.2,65.3,71.4,66.7,62.4,93,62,47,29.86,29.67,4,2,17,0.02
2014-8-21,91.6,77.0,69.8,74.8,70.1,65.6,97,81,58,29.90,29.76,6,1,21,0.87
2014-8-22,92.3,78.0,69.8,75.0,71.6,68.6,100,83,55,29.87,29.76,3,1,11,0.30
2014-8-23,93.6,79.2,69.8,75.4,71.8,68.9,100,81,55,29.86,29.79,3,1,9,0.60
2014-8-24,93.7,77.4,-16.6,75.3,69.8,-26.2,100,80,53,29.88,29.81,27,2,27,0.00
2014-8-25,97.9,82.0,70.0,76.5,70.3,65.0,97,71,48,29.93,29.86,7,1,18,0.00
2014-8-26,97.9,80.3,68.9,75.7,69.6,-14.8,95,73,50,29.98,29.87,8,1,17,0.15
2014-8-27,94.6,82.6,70.2,74.5,69.6,61.6,100,67,52,29.96,29.88,3,2,11,0.15
2014-8-28,90.0,75.6,63.1,68.5,63.4,59.7,89,69,45,29.95,29.87,4,1,11,0.00
2014-8-29,90.7,72.4,68.9,72.5,63.7,62.0,79,75,54,29.92,29.80,4,1,8,0.00
2014-8-30,84.7,78.5,72.3,70.9,67.9,62.9,80,71,64,29.85,29.78,7,4,17,0.00
2014-8-31,90.5,77.8,-15.7,73.5,68.9,-23.3,94,76,58,29.85,29.78,4,2,12,0.17
2014-9-1,87.6,78.6,71.8,73.3,69.6,64.1,95,76,59,29.82,29.69,26,3,53,3.21
2014-9-2,86.2,74.8,66.9,70.1,66.1,64.0,94,76,56,29.85,29.72,93,2,93,0.00
2014-9-3,108.3,77.1,-24.5,91.3,64.7,59.8,97,70,41,29.91,29.84,25,1,49,12.09
2014-9-4,98.6,79.9,65.1,72.5,66.7,61.6,92,68,41,29.95,29.82,7,2,14,0.00
2014-9-5,97.2,82.5,69.3,76.3,70.7,63.8,92,70,52,29.93,29.78,7,2,20,0.00
2014-9-6,81.0,69.4,60.6,69.3,62.1,51.7,96,79,49,30.01,29.83,5,1,14,0.00
2014-9-7,84.6,69.0,51.4,56.7,53.3,44.0,94,63,40,30.07,29.96,3,2,8,0.00
2014-9-8,88.2,66.3,54.7,57.8,53.6,51.6,90,69,36,30.00,29.86,3,1,9,0.00
2014-9-9,89.6,69.9,54.1,63.6,58.1,51.9,93,70,43,29.95,29.78,4,1,12,0.00
2014-9-10,80.4,73.3,68.0,74.4,66.9,58.0,100,81,67,29.79,29.50,9,3,21,0.00
2014-9-11,71.8,61.7,57.0,71.5,54.5,48.7,100,78,67,30.05,29.60,4,2,17,0.00
2014-9-12,65.5,58.5,54.1,52.3,50.1,48.2,87,75,61,30.09,29.99,3,1,10,0.00
2014-9-13,72.7,56.7,48.4,51.2,45.7,42.3,88,69,41,30.16,30.00,5,2,14,0.00
2014-9-14,77.7,58.0,-12.8,51.9,45.6,-29.9,93,68,14,30.16,30.03,3,1,8,0.00
2014-9-15,77.0,57.4,48.0,57.3,51.1,45.5,93,81,47,30.04,29.85,5,1,15,0.00
2014-9-16,75.7,59.4,50.0,54.9,50.6,46.3,94,75,44,30.04,29.92,3,1,10,0.00
2014-9-17,77.0,59.3,46.0,59.0,49.0,43.6,95,72,44,29.95,29.80,3,1,8,0.00
2014-9-18,80.6,62.1,46.6,55.6,49.5,44.7,94,68,39,29.98,29.86,5,1,11,0.00
2014-9-19,81.9,63.2,46.9,55.1,48.9,44.2,92,65,36,30.04,29.90,5,1,14,0.00
2014-9-20,86.0,67.9,52.2,66.5,58.4,47.8,94,74,52,29.90,29.69,14,2,100,0.00
2014-9-21,76.6,68.3,55.0,68.2,56.4,46.6,96,69,45,29.93,29.61,7,3,23,0.00
2014-9-22,73.9,57.3,44.6,47.7,44.7,41.3,89,67,39,30.12,29.92,4,1,11,0.00
2014-9-23,80.2,60.1,43.5,57.5,47.2,40.9,94,68,39,30.20,30.10,4,1,9,0.00
2014-9-24,86.0,63.7,45.9,54.1,49.2,-36.1,91,65,34,30.20,30.09,3,1,10,0.00
2014-9-25,100.9,65.9,49.1,92.6,51.9,19.2,93,67,29,30.16,30.03,3,0,11,0.00
2014-9-26,91.9,67.9,12.7,62.9,48.1,-23.5,92,66,36,30.10,30.01,3,1,8,0.00
2014-9-27,61.2,54.3,8.8,52.4,50.2,5.8,89,86,71,30.09,29.96,1,0,49,26.46
2014-9-28,91.9,70.0,55.2,60.6,53.8,50.9,88,63,32,30.00,29.88,3,0,7,0.00
2014-9-29,91.6,69.2,52.3,63.8,53.8,11.9,95,65,29,29.88,29.76,4,1,50,0.57
2014-9-30,77.9,64.3,49.6,57.2,51.1,44.0,92,65,42,29.84,29.76,4,2,10,0.00
2014-10-1,81.0,48.9,43.7,57.0,43.6,41.2,91,84,45,29.87,29.82,3,0,8,0.00
2014-10-2,88.5,76.1,59.0,69.0,62.6,51.1,85,64,54,29.84,29.57,6,3,16,0.00
2014-10-3,76.6,62.7,45.0,65.1,53.5,40.1,89,74,54,29.69,29.37,8,4,20,0.00
2014-10-4,52.0,45.8,41.9,40.5,32.9,27.7,82,62,47,29.69,29.61,6,3,19,0.08
2014-10-5,63.1,49.8,46.8,40.6,36.2,34.1,75,61,37,29.68,29.52,4,1,12,0.08
2014-10-6,73.4,50.8,41.9,53.9,44.6,37.7,91,80,51,29.58,29.47,4,1,14,0.06
2014-10-7,62.4,57.2,54.1,54.5,52.4,50.2,88,84,75,29.71,29.58,3,0,8,0.14
2014-10-8,74.5,54.1,44.8,50.8,43.9,39.0,93,73,34,29.91,29.71,7,1,17,0.02
2014-10-9,59.4,51.5,44.6,52.9,46.7,41.1,90,84,72,30.00,29.87,1,0,7,0.21
2014-10-10,54.5,52.1,49.6,51.6,42.3,40.6,90,70,66,29.94,29.92,2,1,4,0.21
2014-10-11,65.7,54.0,39.0,41.8,38.2,34.9,87,58,41,30.05,29.91,5,1,11,12.09
2014-10-12,63.0,46.6,43.7,55.8,38.7,35.9,91,74,67,30.00,29.77,3,1,11,12.09
2014-10-13,81.3,68.8,58.6,66.3,62.0,26.6,96,81,29,29.79,29.52,11,4,27,0.24
2014-10-14,74.8,63.9,55.9,63.6,56.6,48.6,94,79,53,29.55,29.38,9,4,23,0.33
2014-10-15,59.2,56.0,54.3,53.8,51.7,49.1,93,86,78,29.61,29.51,4,2,10,0.15
2014-10-16,64.2,58.6,54.3,56.0,51.8,48.0,96,79,66,29.68,29.58,8,2,15,0.09
2014-10-17,73.9,59.2,51.6,53.1,48.1,44.7,87,69,46,29.67,29.49,5,3,20,0.00
2014-10-18,55.6,50.5,46.9,45.6,43.5,39.7,86,77,65,30.00,29.67,5,2,17,0.04
2014-10-19,66.4,50.1,35.6,41.6,38.1,30.3,86,66,42,30.09,29.86,4,1,10,0.00
2014-10-20,75.2,57.1,47.5,52.9,45.7,39.9,78,68,44,29.86,29.65,6,2,15,0.01
2014-10-21,62.2,52.9,48.7,46.5,42.6,-4.7,86,69,50,30.04,29.78,6,2,14,0.01
2014-10-22,67.1,48.1,35.8,43.4,37.1,31.8,89,68,43,30.17,30.04,4,1,11,0.00
2014-10-23,69.6,47.9,32.9,44.6,37.6,30.0,91,71,40,30.11,29.94,2,0,8,0.00
2014-10-24,72.0,52.6,39.4,52.9,44.0,36.4,91,75,52,29.95,29.83,3,1,8,0.00
2014-10-25,84.7,64.1,48.7,57.6,49.9,35.8,93,65,33,29.85,29.73,5,2,14,0.01
2014-10-26,78.6,56.6,38.3,45.7,35.5,29.8,81,50,24,29.88,29.76,3,0,8,0.00
2014-10-27,84.9,65.5,46.2,60.3,47.8,36.6,71,56,38,29.77,29.57,7,3,21,0.01
2014-10-28,72.5,62.3,48.6,59.6,49.6,39.1,91,65,45,29.86,29.62,7,3,27,0.22
2014-10-29,53.4,47.5,41.5,39.2,34.7,32.2,77,62,50,29.98,29.85,6,2,16,0.00
2014-10-30,64.8,47.4,33.8,42.2,33.8,28.8,89,62,38,30.01,29.87,2,0,9,0.00
2014-10-31,48.0,41.1,34.2,38.4,33.8,25.8,86,76,65,30.01,29.79,8,3,22,0.21
2014-11-1,51.1,36.8,29.1,28.1,23.2,19.6,70,59,40,30.21,30.00,7,3,17,0.01
2014-11-2,60.1,39.1,21.7,32.0,21.0,16.9,83,54,26,30.29,30.13,3,1,10,0.00
2014-11-3,72.0,55.8,43.5,32.4,25.4,21.5,44,34,19,30.14,29.94,7,4,19,0.07
2014-11-4,58.1,53.0,45.1,48.7,39.1,27.3,92,65,35,29.99,29.85,6,3,21,0.20
2014-11-5,68.0,48.6,40.5,44.7,39.0,31.9,93,74,36,30.04,29.81,4,1,10,0.00
2014-11-6,48.9,45.1,41.2,44.2,38.5,30.9,90,78,67,29.96,29.66,8,4,27,0.12
2014-11-7,56.5,42.7,37.2,31.7,28.5,25.5,71,59,39,30.04,29.78,6,2,14,0.00
2014-11-8,50.4,43.7,38.8,38.5,31.1,27.1,78,62,55,29.83,29.63,5,3,16,0.00
2014-11-9,55.8,42.8,30.9,30.1,27.4,23.8,76,57,39,29.85,29.68,6,2,15,0.00
2014-11-10,65.5,52.8,42.4,41.3,34.5,29.3,64,52,42,29.75,29.52,8,4,21,0.00
2014-11-11,64.8,47.6,35.4,47.6,35.8,26.9,85,66,46,29.92,29.55,8,4,21,0.06
2014-11-12,36.0,32.3,27.9,26.9,19.7,14.8,70,60,53,30.12,29.92,6,3,18,0.00
2014-11-13,29.8,26.7,21.6,15.9,13.0,9.6,72,57,46,30.14,30.09,6,3,18,0.00
2014-11-14,38.3,25.5,18.1,16.3,12.6,8.0,76,59,39,30.22,30.12,5,2,12,0.00
2014-11-15,43.3,27.6,14.7,19.8,12.8,7.7,77,56,35,30.25,30.04,4,1,10,0.00
2014-11-16,37.0,32.3,30.0,27.4,23.2,19.8,85,70,55,30.06,29.73,3,1,7,0.00
2014-11-17,30.0,23.2,14.5,26.1,12.8,0.6,85,65,46,29.87,29.65,8,3,20,0.00
2014-11-18,28.6,16.9,9.3,7.3,3.2,-2.2,69,55,38,30.06,29.86,8,4,25,0.01
2014-11-19,39.7,28.8,14.9,22.4,14.3,3.9,64,55,49,30.03,29.65,8,5,25,0.06
2014-11-20,35.1,25.8,19.6,12.8,9.6,5.7,59,51,41,30.10,29.89,7,3,20,0.00
2014-11-21,40.3,25.6,10.8,10.6,6.4,0.0,65,46,30,30.34,30.10,5,2,11,0.01
2014-11-22,56.7,46.6,30.9,41.0,31.5,9.5,71,57,40,30.14,29.81,7,4,19,0.02
2014-11-23,60.3,52.1,46.8,54.7,44.5,35.6,96,77,56,29.83,28.97,9,4,26,0.38
2014-11-24,58.3,45.7,35.8,54.2,38.2,24.1,94,76,61,29.72,28.98,10,6,30,0.11
2014-11-25,36.5,31.8,27.7,25.0,21.7,18.4,69,66,61,30.04,29.71,6,3,18,0.00
2014-11-26,44.2,29.9,26.8,24.1,19.3,17.9,71,65,44,30.02,29.87,4,2,10,0.01
2014-11-27,33.4,28.3,25.3,24.1,18.2,14.7,77,66,58,30.22,29.93,6,3,16,0.01
2014-11-28,37.4,28.1,18.9,19.1,15.7,10.9,73,60,42,30.22,29.83,6,3,18,0.01
2014-11-29,61.7,45.7,32.0,46.3,32.3,18.7,69,60,50,29.84,29.59,8,5,20,0.04
2014-11-30,65.3,58.8,40.5,53.3,48.4,35.7,85,69,62,29.99,29.60,8,5,24,0.09
2014-12-1,40.8,33.4,24.1,35.7,20.8,12.9,83,61,40,30.38,29.99,6,3,17,0.01
2014-12-2,34.5,30.8,25.2,28.1,21.9,13.3,79,70,56,30.33,29.95,5,2,12,0.00
2014-12-3,49.8,34.9,24.6,29.7,23.9,17.1,84,66,41,30.21,29.95,5,2,14,0.00
2014-12-4,37.6,31.7,24.1,26.7,22.3,17.6,79,69,52,30.24,30.07,4,1,10,0.00
2014-12-5,43.5,38.9,35.2,41.1,34.9,26.3,94,86,68,30.08,29.92,3,1,11,0.26
2014-12-6,44.8,37.1,27.5,43.2,30.9,21.8,94,79,63,30.41,29.94,5,2,18,0.01
2014-12-7,41.9,32.8,24.4,26.2,22.6,17.7,84,67,52,30.44,30.15,6,2,13,0.00
2014-12-8,43.5,37.7,31.5,38.0,29.2,22.7,92,72,57,30.16,29.88,5,2,13,0.02
2014-12-9,41.9,37.5,34.0,35.0,31.4,26.9,90,79,65,30.11,29.89,5,2,14,0.00
2014-12-10,36.5,33.5,31.3,29.4,22.9,19.9,77,65,57,30.14,30.03,4,2,11,0.00
2014-12-11,44.6,33.1,27.9,26.0,21.8,19.3,74,64,46,30.10,29.99,6,2,14,0.00
2014-12-12,41.2,31.5,23.2,30.6,24.7,17.3,86,76,55,30.15,30.07,5,2,13,0.00
2014-12-13,36.5,36.1,35.6,30.3,30.1,29.7,80,79,78,30.12,30.10,1,0,4,0.00
2014-12-14,46.0,41.9,37.8,42.4,37.8,33.7,89,85,82,29.82,29.54,8,5,17,0.05
2014-12-15,36.0,31.5,27.3,32.2,25.5,20.3,86,78,72,30.06,29.87,8,6,16,0.00
2014-12-16,26.1,25.5,25.0,18.6,17.4,16.1,73,71,68,30.10,30.04,7,4,12,0.00
2014-12-17,27.3,26.1,25.5,15.7,15.1,14.5,65,63,61,30.13,30.06,4,1,7,0.00
2014-12-18,30.0,28.0,26.2,18.3,16.8,15.0,67,62,59,30.08,30.04,2,1,4,0.00
2014-12-19,31.8,29.6,23.9,21.6,19.2,13.8,71,65,59,30.14,30.07,2,0,6,0.00
2014-12-20,36.0,30.6,23.2,22.4,20.4,16.5,75,66,52,30.12,30.06,2,0,5,0.00
2014-12-21,45.3,30.4,19.9,26.3,20.6,14.4,82,68,48,30.12,29.90,6,1,12,0.01
2014-12-22,47.8,37.4,25.5,38.0,28.6,18.8,78,71,65,29.90,29.49,6,2,14,0.00
2014-12-23,65.1,51.8,46.0,50.3,45.2,37.8,93,79,56,29.62,29.47,6,2,14,0.00
2014-12-24,46.0,40.7,36.5,43.5,37.6,32.0,93,89,80,29.53,29.27,6,3,21,0.40
2014-12-25,45.7,37.6,35.2,32.6,29.1,26.7,85,72,57,29.96,29.52,6,3,16,0.01
2014-12-26,58.8,43.7,33.1,39.9,33.7,27.0,81,69,51,29.99,29.91,7,3,16,0.00
2014-12-27,49.1,44.8,34.9,45.6,38.8,30.8,94,80,57,29.96,29.86,7,3,16,0.00
2014-12-28,34.9,30.9,21.7,31.4,23.2,15.8,87,73,66,30.07,29.90,4,2,11,0.00
2014-12-29,45.5,28.6,18.5,27.0,18.0,13.7,85,66,42,30.23,30.04,6,1,14,0.00
2014-12-30,39.6,25.5,16.3,17.8,11.8,-0.4,69,57,42,30.42,30.21,5,2,12,0.00
2014-12-31,32.5,19.7,11.1,3.2,-0.1,-4.0,58,43,28,30.42,30.09,6,3,17,0.00
2015-1-1,42.1,28.1,19.9,14.3,9.3,2.8,55,46,32,30.10,29.88,9,4,20,0.02
2015-1-2,48.0,33.1,23.2,26.2,17.1,12.9,70,54,33,30.16,30.00,3,1,8,0.00